Location: Seven Kings
(51.5667°N, 0.1000°E)
Time: 04:03:42
(UTC+00:00)

X-37B - Pass Details

Date: 24 June 2021
Orbit: 383 x 392 km, 45.0° (Epoch: 01 July)

Event Time Altitude Azimuth Distance (km) Brightness Sun altitude
Rises 22:42:56 0° 247° (WSW) 2,254 4.4 -13.0°
Reaches altitude 10° 22:45:13 10° 233° (SW) 1,401 3.2 -13.2°
Enters shadow 22:47:21 23° 192° (SSW) 861 1.8 -13.3°
